• In Hungary
  • List of Countries
  • For 7 days
  • Water Temperature
  • Satellite Maps
  • Weather Map
  • News
  • Weather Widgets
  • user-avatar
    Login

    Hourly Weather Quito

    Today, 24 May, Thursday

    Time Temperature Precipitation Wind Pressure Humidity
    00:00 +9°C° 1.5 mm 0 mps 537 mmHg 93%
    01:00 +9°C° 1.5 mm 0 mps 536 mmHg 93%
    02:00 +9°C° 1.6 mm 0 mps 536 mmHg 92%
    03:00 +10°C° 1.6 mm 1 mps 536 mmHg 92%
    04:00 +10°C° 1.6 mm 1 mps 536 mmHg 92%
    05:00 +10°C° 1.6 mm 1 mps 536 mmHg 91%
    06:00 +10°C° 1.6 mm 1 mps 536 mmHg 91%
    07:00 +10°C° 1.6 mm 1 mps 536 mmHg 91%
    08:00 +11°C° 1.9 mm 1 mps 537 mmHg 89%
    09:00 +11°C° 1.9 mm 1 mps 537 mmHg 87%
    10:00 +12°C° 1.9 mm 1 mps 538 mmHg 86%
    11:00 +12°C° 1.3 mm 1 mps 537 mmHg 85%
    12:00 +12°C° 1.3 mm 1 mps 537 mmHg 84%
    13:00 +12°C° 1.3 mm 1 mps 537 mmHg 83%
    14:00 +13°C° 0.8 mm 1 mps 537 mmHg 83%
    15:00 +13°C° 0.8 mm 1 mps 537 mmHg 83%
    16:00 +13°C° 0.8 mm 1 mps 536 mmHg 83%
    17:00 +12°C° 0.6 mm 1 mps 536 mmHg 86%
    18:00 +12°C° 0.6 mm 1 mps 536 mmHg 89%
    19:00 +11°C° 0.6 mm 1 mps 536 mmHg 92%
    20:00 +11°C° 0.2 mm 1 mps 536 mmHg 92%
    21:00 +10°C° 0.2 mm 1 mps 536 mmHg 92%
    22:00 +10°C° 0.2 mm 1 mps 536 mmHg 92%
    23:00 +10°C° 0.2 mm 1 mps 536 mmHg 91%

    Tomorrow, 25 May, Friday

    Time Temperature Precipitation Wind Pressure Humidity
    00:00 +10°C° 0.2 mm 1 mps 536 mmHg 90%
    01:00 +10°C° 0.2 mm 1 mps 536 mmHg 89%
    02:00 +10°C° 0.3 mm 1 mps 536 mmHg 89%
    03:00 +10°C° 0.3 mm 1 mps 535 mmHg 89%
    04:00 +10°C° 0.3 mm 1 mps 535 mmHg 88%
    05:00 +10°C° 0.4 mm 1 mps 535 mmHg 88%
    06:00 +10°C° 0.4 mm 1 mps 536 mmHg 87%
    07:00 +10°C° 0.4 mm 1 mps 536 mmHg 87%
    08:00 +12°C° 0.5 mm 1 mps 537 mmHg 83%
    09:00 +13°C° 0.5 mm 1 mps 538 mmHg 79%
    10:00 +14°C° 0.5 mm 1 mps 539 mmHg 75%
    11:00 +14°C° 1 mm 1 mps 538 mmHg 78%
    12:00 +14°C° 1 mm 1 mps 538 mmHg 80%
    13:00 +13°C° 1 mm 1 mps 537 mmHg 82%
    14:00 +13°C° 0.9 mm 1 mps 536 mmHg 85%
    15:00 +13°C° 0.9 mm 1 mps 536 mmHg 87%
    16:00 +12°C° 0.9 mm 1 mps 535 mmHg 89%
    17:00 +12°C° 0.6 mm 1 mps 535 mmHg 90%
    18:00 +11°C° 0.6 mm 1 mps 535 mmHg 91%
    19:00 +11°C° 0.6 mm 1 mps 535 mmHg 93%
    20:00 +11°C° 0.5 mm 1 mps 535 mmHg 93%
    21:00 +11°C° 0.5 mm 1 mps 536 mmHg 93%
    22:00 +11°C° 0.5 mm 1 mps 536 mmHg 93%
    23:00 +11°C° 0.7 mm 1 mps 536 mmHg 93%

    Day after tomorrow, 26 May, Saturday

    Time Temperature Precipitation Wind Pressure Humidity
    00:00 +10°C° 0.7 mm 1 mps 536 mmHg 94%
    01:00 +10°C° 0.7 mm 1 mps 535 mmHg 94%
    02:00 +10°C° 1 mm 1 mps 535 mmHg 94%
    03:00 +10°C° 1 mm 1 mps 535 mmHg 94%
    04:00 +10°C° 1 mm 1 mps 535 mmHg 94%
    05:00 +10°C° 0.8 mm 1 mps 535 mmHg 94%
    06:00 +10°C° 0.8 mm 1 mps 535 mmHg 93%
    07:00 +11°C° 0.8 mm 1 mps 535 mmHg 93%
    08:00 +11°C° 0.5 mm 1 mps 536 mmHg 89%
    09:00 +12°C° 0.5 mm 1 mps 537 mmHg 85%
    10:00 +13°C° 0.5 mm 1 mps 538 mmHg 81%
    11:00 +13°C° 1 mm 1 mps 537 mmHg 82%
    12:00 +13°C° 1 mm 1 mps 537 mmHg 82%
    13:00 +13°C° 1 mm 1 mps 537 mmHg 83%
    14:00 +13°C° 1 mm 1 mps 536 mmHg 85%
    15:00 +13°C° 1 mm 1 mps 536 mmHg 86%
    16:00 +13°C° 1 mm 1 mps 535 mmHg 87%
    17:00 +12°C° 1 mm 1 mps 535 mmHg 90%
    18:00 +12°C° 1 mm 1 mps 535 mmHg 92%
    19:00 +11°C° 1 mm 1 mps 535 mmHg 95%
    20:00 +11°C° 0.8 mm 1 mps 535 mmHg 95%
    21:00 +11°C° 0.8 mm 1 mps 536 mmHg 95%
    22:00 +11°C° 0.8 mm 1 mps 536 mmHg 95%
    23:00 +10°C° 1.2 mm 1 mps 536 mmHg 95%

    27 May, Sunday

    Time Temperature Precipitation Wind Pressure Humidity
    00:00 +10°C° 1.2 mm 1 mps 536 mmHg 95%
    01:00 +10°C° 1.2 mm 1 mps 535 mmHg 95%
    02:00 +10°C° 0.8 mm 1 mps 535 mmHg 96%
    03:00 +10°C° 0.8 mm 1 mps 535 mmHg 96%
    04:00 +10°C° 0.8 mm 1 mps 535 mmHg 96%
    05:00 +10°C° 0.5 mm 1 mps 535 mmHg 95%
    06:00 +10°C° 0.5 mm 1 mps 535 mmHg 94%
    07:00 +10°C° 0.5 mm 1 mps 535 mmHg 94%
    08:00 +11°C° 0.4 mm 1 mps 536 mmHg 89%
    09:00 +12°C° 0.4 mm 1 mps 537 mmHg 85%
    10:00 +13°C° 0.4 mm 1 mps 538 mmHg 81%
    11:00 +14°C° 0.6 mm 1 mps 538 mmHg 80%
    12:00 +14°C° 0.6 mm 1 mps 538 mmHg 79%
    13:00 +15°C° 0.6 mm 2 mps 538 mmHg 78%
    14:00 +14°C° 0.9 mm 1 mps 537 mmHg 81%
    15:00 +14°C° 0.9 mm 1 mps 536 mmHg 85%
    16:00 +13°C° 0.9 mm 1 mps 535 mmHg 88%
    17:00 +12°C° 0.5 mm 1 mps 536 mmHg 90%
    18:00 +12°C° 0.5 mm 1 mps 536 mmHg 92%
    19:00 +11°C° 0.5 mm 1 mps 536 mmHg 95%
    20:00 +11°C° 0.4 mm 1 mps 536 mmHg 94%
    21:00 +10°C° 0.4 mm 0 mps 536 mmHg 94%
    22:00 +10°C° 0.4 mm 0 mps 537 mmHg 94%
    23:00 +9°C° 0.7 mm 0 mps 536 mmHg 94%

    28 May, Monday

    Time Temperature Precipitation Wind Pressure Humidity
    00:00 +9°C° 0.7 mm 0 mps 536 mmHg 94%
    01:00 +9°C° 0.7 mm 0 mps 536 mmHg 94%
    02:00 +9°C° 0.5 mm 0 mps 535 mmHg 95%
    03:00 +10°C° 0.5 mm 1 mps 535 mmHg 95%
    04:00 +10°C° 0.5 mm 1 mps 535 mmHg 95%
    05:00 +10°C° 0.3 mm 1 mps 535 mmHg 94%
    06:00 +10°C° 0.3 mm 1 mps 536 mmHg 93%
    07:00 +10°C° 0.3 mm 1 mps 536 mmHg 92%
    08:00 +12°C° 0.4 mm 1 mps 537 mmHg 87%
    09:00 +13°C° 0.4 mm 1 mps 538 mmHg 83%
    10:00 +14°C° 0.4 mm 1 mps 539 mmHg 78%
    11:00 +14°C° 0.5 mm 1 mps 538 mmHg 80%
    12:00 +14°C° 0.5 mm 1 mps 538 mmHg 81%
    13:00 +14°C° 0.5 mm 1 mps 537 mmHg 83%
    14:00 +13°C° 0.5 mm 1 mps 537 mmHg 84%
    15:00 +13°C° 0.5 mm 1 mps 536 mmHg 86%
    16:00 +13°C° 0.5 mm 1 mps 536 mmHg 88%
    17:00 +12°C° 0.6 mm 1 mps 536 mmHg 90%
    18:00 +11°C° 0.6 mm 1 mps 536 mmHg 93%
    19:00 +11°C° 0.6 mm 1 mps 536 mmHg 96%
    20:00 +10°C° 0.6 mm 0 mps 536 mmHg 96%
    21:00 +10°C° 0.6 mm 0 mps 536 mmHg 96%
    22:00 +9°C° 0.6 mm 0 mps 537 mmHg 95%
    23:00 +9°C° 1 mm 0 mps 536 mmHg 95%

    29 May, Tuesday

    Time Temperature Precipitation Wind Pressure Humidity
    00:00 +9°C° 1 mm 0 mps 536 mmHg 95%
    01:00 +9°C° 1 mm 0 mps 536 mmHg 95%
    02:00 +9°C° 0.7 mm 0 mps 535 mmHg 95%
    03:00 +9°C° 0.7 mm 0 mps 535 mmHg 94%
    04:00 +9°C° 0.7 mm 0 mps 535 mmHg 94%
    05:00 +9°C° 0.6 mm 0 mps 535 mmHg 93%
    06:00 +9°C° 0.6 mm 0 mps 535 mmHg 92%
    07:00 +9°C° 0.6 mm 0 mps 536 mmHg 91%
    08:00 +10°C° 0.9 mm 0 mps 536 mmHg 88%
    09:00 +11°C° 0.9 mm 0 mps 537 mmHg 85%
    10:00 +12°C° 0.9 mm 0 mps 538 mmHg 82%
    11:00 +13°C° 1 mm 1 mps 537 mmHg 82%
    12:00 +13°C° 1 mm 1 mps 537 mmHg 81%
    13:00 +14°C° 1 mm 1 mps 537 mmHg 80%
    14:00 +13°C° 0.9 mm 1 mps 536 mmHg 83%
    15:00 +13°C° 0.9 mm 1 mps 536 mmHg 85%
    16:00 +12°C° 0.9 mm 1 mps 535 mmHg 88%
    17:00 +12°C° 0.6 mm 1 mps 535 mmHg 89%
    18:00 +11°C° 0.6 mm 1 mps 535 mmHg 91%
    19:00 +10°C° 0.6 mm 0 mps 535 mmHg 92%
    20:00 +10°C° 0.3 mm 0 mps 535 mmHg 91%
    21:00 +10°C° 0.3 mm 0 mps 536 mmHg 90%
    22:00 +10°C° 0.3 mm 0 mps 536 mmHg 89%
    23:00 +10°C° 0.8 mm 0 mps 536 mmHg 89%
    Show more